This demonstration page uses our WeatherBlox Daily Observations layout. Learn more.

Left ArrowRight Arrow

36.19886, -115.1175

Hourly Observations for August 20, 2017

Temp ( °F °C ) Dew Point ( °F °C ) Humidity (%) Winds ( mph kmh ) Pressure ( in mb ) Visibility ( mi km ) Precip ( " mm )
12:53 am 00:53 Clear 89 31.7 39 3.9 17 17 SW 5 7 29.81 1010 10 16 N/A
1:53 am 01:53 Clear 84 28.9 39 3.9 20 20 ESE 5 7 29.81 1010 10 16 N/A
2:53 am 02:53 Clear 84 28.9 40 4.4 21 21 SE 5 7 29.81 1010 10 16 N/A
3:53 am 03:53 Clear 82 27.8 41 5 23 23 ESE 6 9 29.81 1010 10 16 N/A
4:53 am 04:53 Clear 80 26.7 42 5.6 26 26 NNW 3 6 29.83 1010 10 16 N/A
5:53 am 05:53 Clear 79 26.1 44 6.7 29 29 N N/A 29.83 1010 10 16 N/A
6:53 am 06:53 Sunny 79 26.1 46 7.8 31 31 NNW 3 6 29.86 1011 10 16 N/A
7:53 am 07:53 Sunny 84 28.9 45 7.2 25 25 N N/A 29.87 1012 10 16 N/A
8:53 am 08:53 Sunny 88 31.1 44 6.7 22 22 N N/A 29.88 1012 10 16 N/A
9:53 am 09:53 Sunny 91 32.8 45 7.2 20 20 ESE 7 11 29.89 1012 10 16 N/A
10:53 am 10:53 Sunny 94 34.4 44 6.7 18 18 ESE 9 15 29.88 1012 10 16 N/A
11:53 am 11:53 Sunny 95 35 40 4.4 15 15 SE 8 13 29.87 1011 10 16 N/A
12:53 pm 12:53 Sunny 99 37.2 39 3.9 12 12 SE 9 15 29.84 1011 10 16 N/A
1:53 pm 13:53 Sunny 98 36.7 39 3.9 13 13 SE 7 11 29.83 1010 10 16 N/A
2:53 pm 14:53 Sunny 99 37.2 39 3.9 12 12 SSE 8 13 29.79 1009 10 16 N/A
3:53 pm 15:53 Sunny 100 37.8 39 3.9 12 12 VRB 7 11 29.77 1008 10 16 N/A
4:53 pm 16:53 Sunny 101 38.3 38 3.3 11 11 E 10 17 29.75 1008 10 16 N/A
5:53 pm 17:53 Sunny 99 37.2 38 3.3 12 12 SE 6 9 29.76 1008 10 16 N/A
6:53 pm 18:53 Sunny 98 36.7 39 3.9 13 13 SE 15 24 29.76 1008 10 16 N/A
7:08 pm 19:08 Sunny with Nearby Thunderstorms 97 36.1 41 5 14 14 SSE 16 26 29.59 1002 10 16 N/A
7:34 pm 19:34 Clear 97 36.1 41 5 14 14 SSE 12 19 29.62 1003 10 16 N/A
7:53 pm 19:53 Clear 96 35.6 41 5 15 15 S 13 20 29.78 1009 10 16 N/A
8:53 pm 20:53 Clear 95 35 40 4.4 15 15 S 12 19 29.80 1009 10 16 N/A
9:53 pm 21:53 Mostly Clear 95 35 41 5 15 15 SW 18 30 29.82 1010 10 16 N/A
10:53 pm 22:53 Mostly Clear 93 33.9 44 6.7 18 18 S 15 24 29.83 1010 10 16 N/A
11:53 pm 23:53 Clear 91 32.8 45 7.2 20 20 S 13 20 29.87 1011 10 16 N/A

Powered by AerisWeather